Location: Calvera
(42.3882°N, 0.6137°E)
Time: 14:46:10
(UTC+00:00)

Cosmos 1400 Rocket - Pass Details

Date: 28 October 2020
Orbit: 521 x 568 km, 81.2° (Epoch: 24 November)

Event Time Altitude Azimuth Distance (km) Brightness Sun altitude
Rises 04:51:12 0° 350° (N) 2,700 6.2 -18.1°
Reaches altitude 10° 04:53:23 10° 352° (N) 1,796 5.3 -17.7°
Maximum altitude 04:57:20 83° 79° (E) 539 2.7 -17.0°
Drops below altitude 10° 05:01:12 10° 169° (SSE) 1,759 5.6 -16.3°
Sets 05:03:19 0° 170° (S) 2,639 6.5 -15.9°
